Watertown, NY

10:49 PM EDT on March 24, 2017 (GMT -0400)
Watertown International

Weather History for KART - December, 2013

Change the Weather History Date:

Tuesday, December 31, 2013

  Actual Average Record
Temperature  
Mean Temperature 13 °F 22 °F  
Max Temperature 22 °F 31 °F 60 °F (1965)
Min Temperature 4 °F 12 °F -21 °F (1963)
Degree Days  
Heating Degree Days 52 43  
Month to date heating degree days 1262 1196  
Since 1 July heating degree days 2837 2796  
Cooling Degree Days 0 0  
Month to date cooling degree days 0 0  
Year to date cooling degree days 481 362  
Moisture  
Dew Point 10 °F    
Average Humidity 70    
Maximum Humidity 88    
Minimum Humidity 52    
Precipitation  
Precipitation 0.01 in 0.09 in 0.57 in (2004)
Month to date precipitation 2.41 3.15  
Year to date precipitation 34.75 36.08  
Sea Level Pressure  
Sea Level Pressure 30.04 in    
Wind  
Wind Speed 10 mph (WSW)    
Max Wind Speed 31 mph    
Max Gust Speed 39 mph    
Visibility 5 miles    
Events Fog , Snow    
T = Trace of Precipitation, MM = Missing Value Source: NWS Daily Summary

Daily Weather History Graph

Daily Weather History Graph

Search for Another Location

Airport or City:

Trip Planner

Search our weather history database for the weather conditions in past years. The results will help you decide how hot, cold, wet, or windy it might be!

Date:

Astronomy

Dec. 31, 2013 Rise Set
Actual Time 7:38 AM EST 4:35 PM EST
Civil Twilight 7:05 AM EST 5:08 PM EST
Nautical Twilight 6:29 AM EST 5:45 PM EST
Astronomical Twilight 5:54 AM EST 6:20 PM EST
Moon 6:27 AM EST (12/31) 4:11 PM EST (12/31)
Length of Visible Light 10h 03m
Length of Day
8h 57m
Waning Crescent, 1% of the Moon is Illuminated
Dec 31
Waning Crescent
Jan 1
New
Jan 7
First Quarter
Jan 15
Full
Jan 24
Last Quarter

Hourly Weather History & Observations

Time (EST) Temp. Windchill Dew Point Humidity Pressure Visibility Wind Dir Wind Speed Gust Speed Precip Events Conditions
12:56 AM 5.0 °F -2.1 °F 1.0 °F 84% 30.22 in 10.0 mi East 3.5 mph - N/A   Clear
1:56 AM 5.0 °F - -0.0 °F 80% 30.22 in 10.0 mi Calm Calm - N/A   Partly Cloudy
2:56 AM 7.0 °F - 3.0 °F 84% 30.19 in 10.0 mi Calm Calm - N/A   Overcast
3:56 AM 8.1 °F 1.4 °F 3.0 °F 80% 30.15 in 10.0 mi East 3.5 mph - N/A   Mostly Cloudy
4:56 AM 8.1 °F - 3.0 °F 80% 30.14 in 10.0 mi Calm Calm - N/A   Overcast
5:56 AM 9.0 °F - 3.9 °F 80% 30.12 in 10.0 mi Calm Calm - N/A   Overcast
6:56 AM 10.0 °F - 3.9 °F 76% 30.11 in 10.0 mi Calm Calm - N/A   Overcast
7:56 AM 10.9 °F 4.7 °F 5.0 °F 77% 30.09 in 4.0 mi East 3.5 mph - 0.00 in Snow Light Snow
8:01 AM 10.4 °F 4.0 °F 5.0 °F 79% 30.05 in 1.8 mi ENE 3.5 mph - 0.00 in Snow Light Snow
8:13 AM 12.2 °F 6.1 °F 6.8 °F 79% 30.04 in 0.8 mi ENE 3.5 mph - 0.00 in Snow Light Snow
8:17 AM 12.2 °F 6.1 °F 6.8 °F 79% 30.04 in 1.2 mi ENE 3.5 mph - 0.00 in Snow Light Snow
8:25 AM 12.2 °F 4.3 °F 6.8 °F 79% 30.04 in 3.0 mi East 4.6 mph - 0.00 in Snow Light Snow
8:53 AM 12.2 °F 2.9 °F 8.6 °F 85% 30.02 in 2.5 mi ENE 5.8 mph - 0.00 in Snow Light Snow
8:56 AM 12.9 °F 5.2 °F 8.1 °F 81% 30.06 in 2.5 mi ENE 4.6 mph - 0.00 in Snow Light Snow
9:05 AM 14.0 °F 6.5 °F 8.6 °F 79% 30.02 in 5.0 mi East 4.6 mph - 0.00 in Snow Light Snow
9:18 AM 14.0 °F 6.5 °F 8.6 °F 79% 30.01 in 6.0 mi East 4.6 mph - 0.00 in   Haze
9:56 AM 17.1 °F 11.7 °F 9.0 °F 71% 30.04 in 8.0 mi ESE 3.5 mph - 0.00 in   Overcast
10:17 AM 17.6 °F 10.7 °F 10.4 °F 73% 29.99 in 4.0 mi South 4.6 mph - N/A   Haze
10:27 AM 17.6 °F 7.3 °F 10.4 °F 73% 29.98 in 5.0 mi South 8.1 mph - N/A   Haze
10:56 AM 19.0 °F 9.0 °F 12.0 °F 74% 30.00 in 5.0 mi South 8.1 mph - 0.00 in   Haze
11:56 AM 21.9 °F 9.2 °F 12.0 °F 66% 29.96 in 10.0 mi South 13.8 mph 20.7 mph N/A   Overcast
12:29 PM 21.2 °F 8.9 °F 14.0 °F 74% 29.92 in 2.5 mi South 12.7 mph 20.7 mph 0.00 in Snow Light Snow
12:38 PM 21.2 °F 10.9 °F 12.2 °F 68% 29.91 in 6.0 mi South 9.2 mph 21.9 mph 0.00 in   Haze
12:56 PM 21.9 °F 9.8 °F 12.9 °F 68% 29.94 in 6.0 mi SSW 12.7 mph 21.9 mph 0.00 in   Haze
1:05 PM 21.2 °F 10.1 °F 14.0 °F 74% 29.91 in 2.5 mi SSW 10.4 mph 21.9 mph 0.00 in Snow Light Snow
1:12 PM 21.2 °F 8.3 °F 15.8 °F 80% 29.91 in 0.8 mi SSW 13.8 mph 20.7 mph 0.00 in Snow Light Snow
1:24 PM 21.2 °F 8.3 °F 15.8 °F 80% 29.91 in 1.8 mi South 13.8 mph 23.0 mph 0.00 in Snow Light Snow
1:45 PM 21.2 °F 11.7 °F 17.6 °F 86% 29.90 in 0.5 mi South 8.1 mph 20.7 mph 0.00 in Snow Snow
1:56 PM 21.9 °F 11.0 °F 16.0 °F 78% 29.94 in 1.5 mi South 10.4 mph - 0.00 in Snow Light Snow
2:04 PM 21.2 °F 9.5 °F 15.8 °F 80% 29.94 in 0.2 mi WNW 11.5 mph 17.3 mph 0.00 in Snow Heavy Snow
2:17 PM 21.2 °F 7.3 °F 17.6 °F 86% 29.95 in 0.2 mi NW 16.1 mph - 0.01 in Fog , Snow Heavy Snow
2:24 PM 21.2 °F 8.9 °F 17.6 °F 86% 29.96 in 0.2 mi NW 12.7 mph - 0.01 in Fog , Snow Light Snow
2:28 PM 21.2 °F 10.9 °F 15.8 °F 80% 29.96 in 1.0 mi NW 9.2 mph - 0.01 in Snow Light Snow
2:36 PM 21.2 °F 9.5 °F 15.8 °F 80% 29.96 in 2.0 mi WNW 11.5 mph - 0.01 in Snow Light Snow
2:46 PM 21.2 °F 10.9 °F 15.8 °F 80% 29.97 in 3.0 mi WNW 9.2 mph - 0.01 in Snow Light Snow
2:56 PM 21.0 °F 9.9 °F 15.1 °F 78% 30.01 in 1.8 mi West 10.4 mph - 0.01 in Snow Light Snow
3:04 PM 21.2 °F 9.5 °F 15.8 °F 80% 29.98 in 3.0 mi West 11.5 mph - 0.00 in Snow Light Snow
3:17 PM 21.2 °F 8.9 °F 12.2 °F 68% 29.98 in 10.0 mi West 12.7 mph - 0.00 in   Overcast
3:53 PM 21.2 °F 5.2 °F 12.2 °F 68% 29.99 in 1.8 mi West 21.9 mph 32.2 mph 0.00 in   Overcast
3:56 PM 21.9 °F 6.5 °F 12.9 °F 68% 30.03 in 1.5 mi West 20.7 mph 32.2 mph 0.00 in   Overcast
4:21 PM 21.2 °F 2.7 °F 12.2 °F 68% 30.01 in 0.8 mi West 31.1 mph 39.1 mph 0.00 in   Overcast
4:41 PM 21.2 °F 6.0 °F 10.4 °F 63% 30.03 in 2.0 mi West 19.6 mph 27.6 mph 0.00 in   Haze
4:56 PM 21.0 °F 7.1 °F 9.0 °F 60% 30.07 in 5.0 mi West 16.1 mph 26.5 mph 0.00 in   Haze
5:56 PM 21.0 °F 4.6 °F 7.0 °F 55% 30.10 in 6.0 mi West 23.0 mph 28.8 mph N/A   Haze
6:56 PM 19.9 °F 4.8 °F 9.0 °F 62% 30.13 in 3.0 mi West 18.4 mph 31.1 mph 0.00 in   Haze
7:56 PM 19.9 °F 5.7 °F 8.1 °F 60% 30.16 in 10.0 mi West 16.1 mph 28.8 mph 0.00 in   Overcast
8:56 PM 19.0 °F 3.6 °F 7.0 °F 59% 30.18 in 10.0 mi West 18.4 mph 27.6 mph N/A   Scattered Clouds
9:56 PM 17.1 °F 2.5 °F 6.1 °F 62% 30.18 in 10.0 mi West 15.0 mph 26.5 mph N/A   Scattered Clouds
10:56 PM 18.0 °F 3.1 °F 3.9 °F 54% 30.19 in 10.0 mi West 16.1 mph 25.3 mph N/A   Clear
11:56 PM 16.0 °F 1.7 °F 6.1 °F 65% 30.21 in 10.0 mi WNW 13.8 mph - N/A   Partly Cloudy